{"data":{"norad_id":59429,"intl_designator":"2024-065J","name":"STARLINK-31773","alt_names":[],"object_type":"PAYLOAD","status":"ACTIVE","operator":null,"country":"US","launch_date":"2024-04-07","launch_site_code":"AFWTR","launch_vehicle":null,"mission":null,"orbit_class":"UNKNOWN","rcs_meters":null,"size_class":null,"mass_kg":null,"dimensions":null,"purposes":["comms"],"wikipedia_slug":null,"has_3d_model":false,"image_url":null,"decayed_at":null,"tle_current":{"epoch":"2026-05-25T02:43:09.947712Z","epoch_age_seconds":59128,"freshness":"FRESH","line1":"1 59429U 24065J   26145.11330958 -.00000125  00000+0  79072-5 0  9992","line2":"2 59429  53.1604 288.5841 0000670 108.4194 251.6880 15.30186204120605","mean_motion":15.30186204,"eccentricity":6.7e-5,"inclination_deg":53.1604,"raan_deg":288.5841,"arg_perigee_deg":108.4194,"mean_anomaly_deg":251.688,"bstar":7.9072e-6,"rev_number":12060,"period_min":94.106194150473,"perigee_km":474.79708474951,"apogee_km":475.71543944663,"semimajor_km":6853.3932620981,"source":"CELESTRAK","updated_at":"2026-05-25T13:38:18.945249Z"}}}